| time (UTC) | temp F | wind direction | speed MPH | gust MPH | rain 1hr in | rain 24hr in | rain mn in | humidity % | barometer mb |
| 20260906045638 | 59 | 212 | 0.0 | 0.0 | 0.00 | 0.01 | 0.01 | 90 | 1018.2 |
| 20260906045133 | 59 | 214 | 0.0 | 0.0 | 0.00 | 0.01 | 0.01 | 90 | 1018.2 |
| 20260906044629 | 59 | 214 | 0.0 | 0.0 | 0.00 | 0.01 | 0.01 | 90 | 1018.2 |
| 20260906044124 | 59 | 215 | 0.0 | 0.0 | 0.00 | 0.01 | 0.01 | 89 | 1017.9 |
| 20260906043620 | 59 | 215 | 0.0 | 0.0 | 0.00 | 0.01 | 0.01 | 89 | 1018.2 |
| 20260906043116 | 60 | 215 | 0.0 | 0.0 | 0.00 | 0.01 | 0.01 | 88 | 1018.6 |
| 20260906042615 | 60 | 217 | 0.0 | 0.0 | 0.00 | 0.01 | 0.01 | 88 | 1018.2 |
| 20260906042109 | 60 | 215 | 0.0 | 0.0 | 0.00 | 0.01 | 0.01 | 87 | 1018.2 |
| 20260906041606 | 60 | 214 | 0.0 | 0.0 | 0.00 | 0.01 | 0.01 | 87 | 1018.2 |
| 20260906041100 | 60 | 215 | 0.0 | 0.0 | 0.00 | 0.01 | 0.01 | 86 | 1018.2 |
| 20260906040556 | 61 | 217 | 0.0 | 0.0 | 0.00 | 0.01 | 0.01 | 86 | 1017.9 |
| 20260906040051 | 61 | 219 | 0.0 | 0.0 | 0.00 | 0.01 | 0.01 | 85 | 1017.9 |
| 20260906035546 | 61 | 227 | 0.0 | 0.0 | 0.00 | 0.01 | 0.01 | 85 | 1018.2 |
| 20260906035042 | 61 | 224 | 0.0 | 0.0 | 0.00 | 0.01 | 0.01 | 85 | 1018.2 |
| 20260906034542 | 61 | 217 | 0.0 | 0.0 | 0.00 | 0.01 | 0.01 | 84 | 1018.2 |
| 20260906034037 | 62 | 219 | 0.0 | 0.0 | 0.00 | 0.01 | 0.01 | 83 | 1018.2 |
| 20260906033532 | 62 | 222 | 0.0 | 0.0 | 0.00 | 0.01 | 0.01 | 83 | 1017.9 |
| 20260906033027 | 62 | 233 | 0.0 | 0.0 | 0.00 | 0.01 | 0.01 | 83 | 1017.9 |
| 20260906032524 | 62 | 219 | 0.0 | 0.0 | 0.00 | 0.01 | 0.01 | 82 | 1017.9 |
| 20260906032024 | 62 | 227 | 0.0 | 0.0 | 0.00 | 0.01 | 0.01 | 82 | 1017.9 |
| 20260906031520 | 62 | 253 | 0.0 | 0.0 | 0.00 | 0.01 | 0.01 | 82 | 1017.9 |
| 20260906031009 | 63 | 226 | 0.0 | 0.0 | 0.00 | 0.01 | 0.01 | 81 | 1017.9 |
| 20260906030503 | 63 | 281 | 0.0 | 0.0 | 0.00 | 0.01 | 0.01 | 80 | 1017.9 |
| 20260906030003 | 63 | 244 | 0.0 | 0.0 | 0.00 | 0.01 | 0.01 | 80 | 1017.9 |
| 20260906025502 | 64 | 238 | 0.0 | 0.0 | 0.00 | 0.01 | 0.01 | 79 | 1017.9 |
| 20260906025001 | 64 | 227 | 0.0 | 0.0 | 0.00 | 0.01 | 0.01 | 79 | 1018.2 |
| 20260906024456 | 64 | 249 | 0.0 | 0.0 | 0.00 | 0.01 | 0.01 | 78 | 1017.9 |
| 20260906023955 | 64 | 253 | 0.0 | 0.0 | 0.00 | 0.01 | 0.01 | 78 | 1017.9 |
| 20260906023453 | 64 | 265 | 2.0 | 2.0 | 0.00 | 0.01 | 0.01 | 77 | 1018.2 |
| 20260906022953 | 65 | 227 | 0.0 | 0.0 | 0.00 | 0.01 | 0.01 | 76 | 1017.9 |
| 20260906022448 | 65 | 258 | 2.0 | 2.0 | 0.00 | 0.01 | 0.01 | 75 | 1017.9 |
| 20260906021943 | 65 | 300 | 0.0 | 0.0 | 0.00 | 0.01 | 0.01 | 75 | 1017.9 |
| 20260906021438 | 65 | 238 | 0.0 | 0.0 | 0.00 | 0.01 | 0.01 | 73 | 1017.9 |
| 20260906020938 | 65 | 246 | 2.0 | 2.0 | 0.00 | 0.01 | 0.01 | 73 | 1017.6 |
| 20260906020432 | 66 | 262 | 3.0 | 3.0 | 0.00 | 0.01 | 0.01 | 72 | 1017.9 |
| 20260906015926 | 66 | 253 | 0.0 | 0.0 | 0.00 | 0.01 | 0.01 | 72 | 1017.9 |
| 20260906015420 | 66 | 302 | 4.0 | 5.0 | 0.00 | 0.01 | 0.01 | 71 | 1017.9 |
| 20260906014914 | 66 | 231 | 3.0 | 5.0 | 0.00 | 0.01 | 0.01 | 71 | 1017.9 |
| 20260906014408 | 66 | 267 | 5.0 | 6.0 | 0.00 | 0.01 | 0.01 | 70 | 1018.2 |
| 20260906013905 | 66 | 283 | 6.0 | 7.0 | 0.00 | 0.01 | 0.01 | 70 | 1017.6 |
| 20260906013400 | 67 | 258 | 1.0 | 2.0 | 0.00 | 0.01 | 0.01 | 71 | 1017.9 |
| 20260906012855 | 67 | 260 | 0.0 | 1.0 | 0.00 | 0.01 | 0.01 | 71 | 1017.9 |
| 20260906012350 | 67 | 231 | 0.0 | 0.0 | 0.00 | 0.01 | 0.01 | 70 | 1017.9 |
| 20260906011850 | 67 | 245 | 0.0 | 0.0 | 0.00 | 0.01 | 0.01 | 70 | 1017.9 |
| 20260906011345 | 68 | 233 | 0.0 | 0.0 | 0.00 | 0.01 | 0.01 | 69 | 1018.2 |
| 20260906010841 | 68 | 252 | 3.0 | 3.0 | 0.00 | 0.01 | 0.01 | 69 | 1017.9 |
| 20260906010337 | 68 | 282 | 3.0 | 3.0 | 0.00 | 0.01 | 0.01 | 69 | 1017.9 |
| 20260906005832 | 68 | 273 | 5.0 | 6.0 | 0.00 | 0.01 | 0.01 | 68 | 1017.9 |
| 20260906005331 | 68 | 217 | 1.0 | 1.0 | 0.00 | 0.01 | 0.01 | 67 | 1017.9 |
| 20260906004830 | 68 | 300 | 5.0 | 6.0 | 0.00 | 0.01 | 0.01 | 67 | 1017.9 |
| 20260906004330 | 69 | 260 | 7.0 | 8.0 | 0.00 | 0.01 | 0.01 | 66 | 1017.9 |
| 20260906003825 | 69 | 259 | 4.0 | 5.0 | 0.00 | 0.01 | 0.01 | 65 | 1017.9 |
| 20260906003320 | 70 | 240 | 3.0 | 5.0 | 0.00 | 0.01 | 0.01 | 64 | 1018.2 |
| 20260906002816 | 70 | 302 | 2.0 | 2.0 | 0.00 | 0.01 | 0.01 | 61 | 1018.2 |
| 20260906002315 | 69 | 316 | 5.0 | 6.0 | 0.00 | 0.01 | 0.01 | 61 | 1017.9 |
| 20260906001811 | 70 | 304 | 3.0 | 3.0 | 0.00 | 0.01 | 0.01 | 62 | 1017.6 |
| 20260906001307 | 70 | 247 | 4.0 | 6.0 | 0.00 | 0.01 | 0.01 | 60 | 1017.6 |
| 20260906000807 | 71 | 270 | 3.0 | 3.0 | 0.00 | 0.01 | 0.01 | 60 | 1017.9 |
| 20260906000303 | 71 | 276 | 4.0 | 6.0 | 0.00 | 0.01 | 0.01 | 58 | 1017.9 |
| 20260905235756 | 72 | 332 | 2.0 | 2.0 | 0.00 | 0.01 | 0.01 | 57 | 1017.6 |
| 20260905235256 | 71 | 265 | 3.0 | 5.0 | 0.00 | 0.01 | 0.01 | 58 | 1017.9 |
| 20260905234751 | 70 | 303 | 3.0 | 5.0 | 0.00 | 0.01 | 0.01 | 60 | 1017.6 |
| 20260905234246 | 71 | 275 | 4.0 | 8.0 | 0.00 | 0.01 | 0.01 | 61 | 1017.9 |
| 20260905233742 | 71 | 251 | 2.0 | 2.0 | 0.00 | 0.01 | 0.01 | 60 | 1017.9 |
| 20260905233241 | 71 | 359 | 5.0 | 7.0 | 0.00 | 0.01 | 0.01 | 58 | 1017.9 |
| 20260905232735 | 71 | 9 | 5.0 | 6.0 | 0.00 | 0.01 | 0.01 | 60 | 1017.9 |
| 20260905232232 | 71 | 262 | 3.0 | 3.0 | 0.00 | 0.01 | 0.01 | 61 | 1017.9 |
| 20260905231727 | 71 | 215 | 0.0 | 1.0 | 0.00 | 0.01 | 0.01 | 60 | 1017.9 |
| 20260905231223 | 72 | 268 | 6.0 | 7.0 | 0.00 | 0.01 | 0.01 | 59 | 1018.2 |
| 20260905230719 | 73 | 297 | 3.0 | 5.0 | 0.00 | 0.01 | 0.01 | 57 | 1017.9 |
| 20260905230217 | 73 | 181 | 3.0 | 3.0 | 0.00 | 0.01 | 0.01 | 59 | 1018.2 |
| 20260905225716 | 74 | 208 | 2.0 | 2.0 | 0.00 | 0.01 | 0.01 | 55 | 1018.2 |
| 20260905225212 | 72 | 211 | 0.0 | 0.0 | 0.00 | 0.01 | 0.01 | 58 | 1018.2 |
| 20260905224711 | 71 | 243 | 1.0 | 1.0 | 0.00 | 0.01 | 0.01 | 62 | 1018.2 |
| 20260905224206 | 71 | 232 | 3.0 | 3.0 | 0.00 | 0.01 | 0.01 | 60 | 1018.6 |
| 20260905223702 | 71 | 238 | 3.0 | 3.0 | 0.00 | 0.01 | 0.01 | 60 | 1018.6 |
| 20260905223159 | 70 | 299 | 2.0 | 2.0 | 0.00 | 0.01 | 0.01 | 61 | 1018.2 |
| 20260905222654 | 71 | 283 | 4.0 | 6.0 | 0.00 | 0.01 | 0.01 | 64 | 1018.2 |
| 20260905222154 | 71 | 329 | 6.0 | 7.0 | 0.00 | 0.01 | 0.01 | 60 | 1018.6 |
| 20260905221649 | 72 | 207 | 3.0 | 3.0 | 0.00 | 0.01 | 0.01 | 61 | 1018.6 |
| 20260905221146 | 71 | 203 | 3.0 | 7.0 | 0.00 | 0.01 | 0.01 | 61 | 1018.6 |
| 20260905220647 | 71 | 213 | 4.0 | 5.0 | 0.00 | 0.01 | 0.01 | 62 | 1018.6 |
| 20260905220143 | 69 | 255 | 2.0 | 3.0 | 0.00 | 0.01 | 0.01 | 62 | 1018.6 |
| 20260905215642 | 70 | 186 | 3.0 | 3.0 | 0.00 | 0.01 | 0.01 | 63 | 1018.6 |
| 20260905215138 | 71 | 21 | 2.0 | 3.0 | 0.00 | 0.01 | 0.01 | 60 | 1018.6 |
| 20260905214634 | 71 | 153 | 3.0 | 5.0 | 0.00 | 0.01 | 0.01 | 61 | 1018.6 |
| 20260905214129 | 71 | 298 | 3.0 | 3.0 | 0.00 | 0.01 | 0.01 | 58 | 1018.6 |
| 20260905213625 | 71 | 197 | 0.0 | 1.0 | 0.00 | 0.01 | 0.01 | 60 | 1018.6 |
| 20260905213119 | 70 | 219 | 0.0 | 0.0 | 0.00 | 0.01 | 0.01 | 62 | 1018.6 |
| 20260905212614 | 70 | 207 | 2.0 | 2.0 | 0.00 | 0.01 | 0.01 | 63 | 1018.6 |
| 20260905212114 | 72 | 266 | 1.0 | 2.0 | 0.00 | 0.01 | 0.01 | 60 | 1018.9 |
| 20260905211609 | 72 | 270 | 2.0 | 2.0 | 0.00 | 0.01 | 0.01 | 61 | 1018.9 |
| 20260905211104 | 71 | 215 | 0.0 | 0.0 | 0.00 | 0.01 | 0.01 | 60 | 1018.6 |
| 20260905210601 | 71 | 217 | 0.0 | 0.0 | 0.00 | 0.01 | 0.01 | 63 | 1018.9 |
| 20260905210055 | 70 | 52 | 0.0 | 0.0 | 0.00 | 0.01 | 0.01 | 62 | 1018.6 |
| 20260905205554 | 70 | 314 | 7.0 | 8.0 | 0.00 | 0.01 | 0.01 | 63 | 1018.9 |
| 20260905205054 | 74 | 244 | 1.0 | 2.0 | 0.00 | 0.01 | 0.01 | 61 | 1018.9 |
| 20260905204549 | 75 | 159 | 2.0 | 3.0 | 0.00 | 0.01 | 0.01 | 58 | 1019.3 |
| 20260905204044 | 75 | 245 | 0.0 | 1.0 | 0.00 | 0.01 | 0.01 | 56 | 1019.3 |
| 20260905203538 | 76 | 110 | 1.0 | 2.0 | 0.00 | 0.01 | 0.01 | 55 | 1018.9 |
| 20260905203034 | 75 | 206 | 0.0 | 1.0 | 0.00 | 0.01 | 0.01 | 57 | 1019.3 |
| 20260905202529 | 73 | 216 | 0.0 | 0.0 | 0.00 | 0.01 | 0.01 | 58 | 1018.9 |
| 20260905202024 | 73 | 239 | 1.0 | 1.0 | 0.00 | 0.01 | 0.01 | 58 | 1018.9 |
| 20260905201520 | 71 | 208 | 0.0 | 1.0 | 0.00 | 0.01 | 0.01 | 61 | 1019.3 |
| 20260905201019 | 70 | 206 | 0.0 | 1.0 | 0.00 | 0.01 | 0.01 | 63 | 1019.3 |
| 20260905200515 | 70 | 231 | 2.0 | 3.0 | 0.00 | 0.01 | 0.01 | 63 | 1019.3 |
| 20260905200014 | 68 | 199 | 1.0 | 2.0 | 0.00 | 0.01 | 0.01 | 67 | 1018.9 |
| 20260905195509 | 68 | 175 | 1.0 | 2.0 | 0.00 | 0.01 | 0.01 | 69 | 1019.3 |
| 20260905195004 | 68 | 229 | 1.0 | 1.0 | 0.00 | 0.01 | 0.01 | 68 | 1019.3 |
| 20260905194503 | 68 | 208 | 2.0 | 2.0 | 0.00 | 0.01 | 0.01 | 68 | 1019.3 |
| 20260905193957 | 67 | 211 | 1.0 | 1.0 | 0.00 | 0.01 | 0.01 | 69 | 1019.6 |
| 20260905193452 | 68 | 192 | 0.0 | 1.0 | 0.00 | 0.01 | 0.01 | 71 | 1019.6 |
| 20260905192948 | 67 | 249 | 1.0 | 2.0 | 0.00 | 0.01 | 0.01 | 71 | 1019.6 |
| 20260905192442 | 67 | 212 | 0.0 | 0.0 | 0.00 | 0.01 | 0.01 | 73 | 1019.6 |
| 20260905191938 | 68 | 237 | 1.0 | 1.0 | 0.00 | 0.01 | 0.01 | 71 | 1019.6 |
| 20260905191438 | 66 | 210 | 1.0 | 1.0 | 0.00 | 0.01 | 0.01 | 73 | 1019.6 |
| 20260905190937 | 65 | 213 | 0.0 | 1.0 | 0.00 | 0.01 | 0.01 | 76 | 1019.6 |
| 20260905190434 | 65 | 244 | 2.0 | 3.0 | 0.00 | 0.01 | 0.01 | 76 | 1019.6 |
| 20260905185934 | 64 | 204 | 0.0 | 1.0 | 0.00 | 0.01 | 0.01 | 77 | 1019.9 |
| 20260905185429 | 65 | 301 | 3.0 | 5.0 | 0.00 | 0.01 | 0.01 | 77 | 1019.6 |
| 20260905184927 | 65 | 269 | 2.0 | 2.0 | 0.00 | 0.01 | 0.01 | 76 | 1019.6 |
| 20260905184422 | 65 | 338 | 1.0 | 1.0 | 0.00 | 0.01 | 0.01 | 77 | 1019.9 |
| 20260905183921 | 65 | 278 | 2.0 | 2.0 | 0.00 | 0.01 | 0.01 | 78 | 1019.9 |
| 20260905183416 | 64 | 161 | 1.0 | 2.0 | 0.00 | 0.01 | 0.01 | 79 | 1019.6 |
| 20260905182911 | 64 | 233 | 0.0 | 0.0 | 0.00 | 0.01 | 0.01 | 80 | 1019.6 |
| 20260905182410 | 63 | 239 | 0.0 | 0.0 | 0.00 | 0.01 | 0.01 | 81 | 1019.6 |
| 20260905181906 | 62 | 246 | 0.0 | 0.0 | 0.00 | 0.01 | 0.01 | 83 | 1019.6 |
| 20260905181401 | 62 | 242 | 0.0 | 0.0 | 0.00 | 0.01 | 0.01 | 83 | 1019.9 |
| 20260905180900 | 62 | 219 | 0.0 | 0.0 | 0.00 | 0.01 | 0.01 | 83 | 1019.9 |
| 20260905180355 | 62 | 198 | 0.0 | 0.0 | 0.00 | 0.01 | 0.01 | 85 | 1019.6 |
| 20260905175850 | 61 | 204 | 0.0 | 0.0 | 0.00 | 0.01 | 0.01 | 86 | 1019.9 |
| 20260905175349 | 61 | 201 | 0.0 | 0.0 | 0.00 | 0.01 | 0.01 | 87 | 1019.9 |
| 20260905174850 | 61 | 189 | 0.0 | 0.0 | 0.00 | 0.01 | 0.01 | 88 | 1019.9 |
| 20260905174345 | 60 | 212 | 0.0 | 0.0 | 0.00 | 0.01 | 0.01 | 89 | 1019.9 |
| 20260905173841 | 60 | 215 | 0.0 | 0.0 | 0.00 | 0.01 | 0.01 | 89 | 1019.9 |
| 20260905173338 | 60 | 209 | 0.0 | 0.0 | 0.00 | 0.01 | 0.01 | 89 | 1019.9 |
| 20260905172838 | 60 | 207 | 0.0 | 0.0 | 0.00 | 0.01 | 0.01 | 89 | 1019.9 |
| 20260905172335 | 59 | 217 | 0.0 | 0.0 | 0.00 | 0.01 | 0.01 | 89 | 1019.9 |
| 20260905171832 | 59 | 219 | 0.0 | 0.0 | 0.00 | 0.01 | 0.01 | 90 | 1019.9 |
| 20260905171329 | 59 | 215 | 0.0 | 0.0 | 0.00 | 0.01 | 0.01 | 90 | 1019.9 |
| 20260905170825 | 59 | 216 | 0.0 | 0.0 | 0.00 | 0.01 | 0.01 | 91 | 1019.9 |
| 20260905170320 | 60 | 205 | 0.0 | 0.0 | 0.00 | 0.01 | 0.01 | 91 | 1019.9 |
| 20260905165819 | 59 | 220 | 0.0 | 0.0 | 0.00 | 0.01 | 0.01 | 92 | 1019.6 |
| 20260905165315 | 59 | 212 | 0.0 | 0.0 | 0.00 | 0.01 | 0.01 | 92 | 1019.9 |
| 20260905164815 | 59 | 216 | 0.0 | 0.0 | 0.00 | 0.01 | 0.01 | 92 | 1019.6 |
| 20260905164310 | 59 | 218 | 0.0 | 0.0 | 0.00 | 0.01 | 0.01 | 93 | 1019.9 |
| 20260905163805 | 58 | 210 | 0.0 | 0.0 | 0.00 | 0.01 | 0.01 | 93 | 1019.9 |
| 20260905163302 | 58 | 207 | 0.0 | 0.0 | 0.00 | 0.01 | 0.01 | 93 | 1019.9 |
| 20260905162757 | 58 | 205 | 0.0 | 0.0 | 0.00 | 0.01 | 0.01 | 93 | 1019.6 |
| 20260905162256 | 58 | 209 | 0.0 | 0.0 | 0.00 | 0.01 | 0.01 | 94 | 1019.9 |
| 20260905161751 | 57 | 212 | 1.0 | 1.0 | 0.00 | 0.01 | 0.01 | 95 | 1019.9 |
| 20260905161250 | 58 | 200 | 1.0 | 1.0 | 0.00 | 0.01 | 0.01 | 95 | 1019.9 |
| 20260905160748 | 57 | 204 | 0.0 | 1.0 | 0.00 | 0.01 | 0.01 | 95 | 1019.9 |
| 20260905160243 | 57 | 206 | 0.0 | 0.0 | 0.00 | 0.01 | 0.01 | 96 | 1019.9 |
| 20260905155738 | 57 | 206 | 0.0 | 1.0 | 0.00 | 0.01 | 0.01 | 96 | 1019.9 |
| 20260905155236 | 57 | 180 | 1.0 | 2.0 | 0.00 | 0.01 | 0.01 | 97 | 1019.9 |
| 20260905154731 | 56 | 209 | 0.0 | 0.0 | 0.00 | 0.01 | 0.01 | 97 | 1019.9 |
| 20260905154227 | 56 | 175 | 1.0 | 2.0 | 0.00 | 0.01 | 0.01 | 97 | 1019.9 |
| 20260905153723 | 56 | 196 | 0.0 | 1.0 | 0.00 | 0.01 | 0.01 | 98 | 1019.9 |
| 20260905153219 | 56 | 209 | 0.0 | 0.0 | 0.00 | 0.01 | 0.01 | 98 | 1019.9 |
| 20260905152718 | 56 | 132 | 0.0 | 1.0 | 0.00 | 0.01 | 0.01 | 98 | 1019.9 |
| 20260905152213 | 56 | 208 | 0.0 | 0.0 | 0.00 | 0.01 | 0.01 | 99 | 1019.9 |
| 20260905151712 | 56 | 170 | 0.0 | 1.0 | 0.00 | 0.01 | 0.01 | 99 | 1019.6 |
| 20260905151209 | 56 | 159 | 0.0 | 0.0 | 0.00 | 0.01 | 0.01 | 99 | 1019.9 |
| 20260905150703 | 56 | 198 | 0.0 | 0.0 | 0.00 | 0.01 | 0.01 | 99 | 1019.9 |
| 20260905150202 | 56 | 211 | 0.0 | 1.0 | 0.00 | 0.01 | 0.01 | 99 | 1019.6 |
| 20260905145700 | 56 | 211 | 0.0 | 0.0 | 0.00 | 0.01 | 0.01 | 99 | 1019.9 |
| 20260905145155 | 56 | 183 | 0.0 | 0.0 | 0.00 | 0.01 | 0.01 | 99 | 1019.9 |
| 20260905144655 | 55 | 203 | 0.0 | 0.0 | 0.00 | 0.01 | 0.01 | 99 | 1019.9 |
| 20260905144155 | 55 | 205 | 0.0 | 0.0 | 0.00 | 0.01 | 0.01 | 99 | 1019.9 |
| 20260905143654 | 55 | 206 | 0.0 | 0.0 | 0.00 | 0.01 | 0.01 | 99 | 1019.9 |
| 20260905143148 | 55 | 201 | 0.0 | 0.0 | 0.00 | 0.01 | 0.01 | 99 | 1019.6 |
| 20260905142647 | 55 | 203 | 0.0 | 0.0 | 0.00 | 0.01 | 0.01 | 99 | 1019.6 |
| 20260905142142 | 55 | 206 | 0.0 | 0.0 | 0.00 | 0.01 | 0.01 | 99 | 1019.9 |
| 20260905141636 | 55 | 207 | 0.0 | 0.0 | 0.00 | 0.01 | 0.01 | 99 | 1019.6 |
| 20260905141132 | 55 | 209 | 0.0 | 0.0 | 0.00 | 0.01 | 0.01 | 99 | 1019.6 |
| 20260905140627 | 55 | 208 | 0.0 | 0.0 | 0.00 | 0.01 | 0.01 | 99 | 1019.6 |
| 20260905140126 | 55 | 210 | 0.0 | 0.0 | 0.00 | 0.01 | 0.01 | 99 | 1019.6 |
| 20260905135617 | 55 | 210 | 0.0 | 0.0 | 0.00 | 0.01 | 0.01 | 99 | 1019.6 |
| 20260905135112 | 55 | 209 | 0.0 | 0.0 | 0.00 | 0.01 | 0.01 | 99 | 1019.6 |
| 20260905134606 | 55 | 211 | 0.0 | 0.0 | 0.00 | 0.01 | 0.01 | 99 | 1019.9 |
| 20260905134104 | 55 | 212 | 0.0 | 0.0 | 0.00 | 0.01 | 0.01 | 99 | 1019.9 |
| 20260905133600 | 55 | 212 | 0.0 | 0.0 | 0.00 | 0.01 | 0.01 | 99 | 1019.6 |
| 20260905133055 | 55 | 212 | 0.0 | 0.0 | 0.00 | 0.01 | 0.01 | 99 | 1019.6 |
| 20260905132555 | 55 | 212 | 0.0 | 0.0 | 0.00 | 0.01 | 0.01 | 99 | 1019.6 |
| 20260905132049 | 55 | 212 | 0.0 | 0.0 | 0.00 | 0.01 | 0.01 | 99 | 1019.6 |
| 20260905131545 | 55 | 212 | 0.0 | 0.0 | 0.00 | 0.01 | 0.01 | 99 | 1019.6 |
| 20260905131040 | 55 | 209 | 0.0 | 0.0 | 0.00 | 0.01 | 0.01 | 99 | 1019.6 |
| 20260905130539 | 55 | 210 | 0.0 | 0.0 | 0.00 | 0.01 | 0.01 | 99 | 1019.6 |
| 20260905130034 | 55 | 209 | 0.0 | 0.0 | 0.00 | 0.01 | 0.01 | 99 | 1019.6 |
| 20260905125534 | 55 | 209 | 0.0 | 0.0 | 0.00 | 0.01 | 0.01 | 99 | 1019.3 |
| 20260905125029 | 55 | 210 | 0.0 | 0.0 | 0.00 | 0.01 | 0.01 | 99 | 1019.6 |
| 20260905124526 | 55 | 199 | 0.0 | 0.0 | 0.00 | 0.01 | 0.01 | 99 | 1019.3 |
| 20260905124022 | 55 | 214 | 0.0 | 0.0 | 0.00 | 0.01 | 0.01 | 99 | 1019.3 |
| 20260905123517 | 55 | 215 | 0.0 | 0.0 | 0.00 | 0.01 | 0.01 | 99 | 1018.9 |
| 20260905123013 | 55 | 216 | 0.0 | 0.0 | 0.00 | 0.01 | 0.01 | 99 | 1019.3 |
| 20260905122507 | 55 | 216 | 0.0 | 0.0 | 0.00 | 0.01 | 0.01 | 99 | 1018.9 |
| 20260905122003 | 55 | 210 | 0.0 | 0.0 | 0.00 | 0.01 | 0.01 | 99 | 1019.3 |
| 20260905121457 | 55 | 209 | 0.0 | 0.0 | 0.00 | 0.01 | 0.01 | 99 | 1019.3 |
| 20260905120956 | 55 | 191 | 0.0 | 0.0 | 0.00 | 0.01 | 0.01 | 99 | 1019.3 |
| 20260905120451 | 55 | 201 | 0.0 | 0.0 | 0.00 | 0.01 | 0.01 | 99 | 1019.3 |
| 20260905115946 | 55 | 211 | 0.0 | 0.0 | 0.00 | 0.01 | 0.01 | 99 | 1019.3 |
| 20260905115445 | 55 | 212 | 0.0 | 0.0 | 0.00 | 0.01 | 0.01 | 99 | 1019.6 |
| 20260905114941 | 55 | 211 | 0.0 | 0.0 | 0.00 | 0.01 | 0.01 | 99 | 1019.3 |
| 20260905114440 | 55 | 210 | 0.0 | 0.0 | 0.00 | 0.01 | 0.01 | 99 | 1019.3 |
| 20260905113939 | 55 | 210 | 0.0 | 0.0 | 0.00 | 0.01 | 0.01 | 99 | 1019.3 |
| 20260905113434 | 55 | 210 | 0.0 | 0.0 | 0.00 | 0.01 | 0.01 | 99 | 1019.3 |
| 20260905112929 | 56 | 210 | 0.0 | 0.0 | 0.00 | 0.01 | 0.01 | 99 | 1019.3 |
| 20260905112425 | 56 | 210 | 0.0 | 0.0 | 0.00 | 0.01 | 0.01 | 99 | 1019.3 |
| 20260905111919 | 55 | 210 | 0.0 | 0.0 | 0.00 | 0.01 | 0.01 | 99 | 1019.3 |
| 20260905111414 | 56 | 210 | 0.0 | 0.0 | 0.00 | 0.01 | 0.01 | 99 | 1019.3 |
| 20260905110908 | 55 | 214 | 0.0 | 0.0 | 0.00 | 0.01 | 0.01 | 99 | 1019.3 |
| 20260905110402 | 55 | 214 | 0.0 | 0.0 | 0.00 | 0.01 | 0.01 | 99 | 1019.3 |
| 20260905105857 | 55 | 215 | 0.0 | 0.0 | 0.00 | 0.01 | 0.01 | 99 | 1019.3 |
| 20260905105356 | 56 | 215 | 0.0 | 0.0 | 0.00 | 0.01 | 0.01 | 99 | 1019.3 |
| 20260905104856 | 56 | 217 | 0.0 | 0.0 | 0.00 | 0.01 | 0.01 | 99 | 1019.3 |
| 20260905104352 | 56 | 218 | 0.0 | 0.0 | 0.00 | 0.01 | 0.01 | 99 | 1019.3 |
| 20260905103847 | 55 | 217 | 0.0 | 0.0 | 0.00 | 0.01 | 0.01 | 99 | 1019.3 |
| 20260905103342 | 55 | 212 | 0.0 | 0.0 | 0.00 | 0.01 | 0.01 | 99 | 1019.3 |
| 20260905102838 | 55 | 212 | 0.0 | 0.0 | 0.00 | 0.01 | 0.01 | 99 | 1019.3 |
| 20260905102334 | 55 | 211 | 0.0 | 0.0 | 0.07 | 0.01 | 0.01 | 99 | 1019.3 |
| 20260905101829 | 55 | 211 | 0.0 | 0.0 | 0.07 | 0.01 | 0.01 | 99 | 1019.3 |
| 20260905101327 | 55 | 210 | 0.0 | 0.0 | 0.00 | 0.00 | 0.00 | 99 | 1019.3 |
| 20260905100822 | 55 | 212 | 0.0 | 0.0 | 0.00 | 0.00 | 0.00 | 99 | 1019.3 |
| 20260905100318 | 55 | 209 | 0.0 | 0.0 | 0.00 | 0.00 | 0.00 | 98 | 1018.9 |
| 20260905095817 | 55 | 210 | 0.0 | 0.0 | 0.00 | 0.00 | 0.00 | 98 | 1019.3 |
| 20260905095317 | 55 | 211 | 0.0 | 0.0 | 0.00 | 0.00 | 0.00 | 98 | 1019.3 |
| 20260905094811 | 55 | 211 | 0.0 | 0.0 | 0.00 | 0.00 | 0.00 | 98 | 1019.3 |
| 20260905094308 | 55 | 211 | 0.0 | 0.0 | 0.00 | 0.00 | 0.00 | 98 | 1018.9 |
| 20260905093806 | 55 | 210 | 0.0 | 0.0 | 0.00 | 0.00 | 0.00 | 98 | 1019.3 |
| 20260905093302 | 55 | 209 | 0.0 | 0.0 | 0.00 | 0.00 | 0.00 | 98 | 1019.3 |
| 20260905092758 | 55 | 209 | 0.0 | 0.0 | 0.00 | 0.00 | 0.00 | 98 | 1019.3 |
| 20260905092253 | 54 | 212 | 0.0 | 0.0 | 0.00 | 0.00 | 0.00 | 98 | 1018.9 |
| 20260905091752 | 54 | 212 | 0.0 | 0.0 | 0.00 | 0.00 | 0.00 | 98 | 1019.3 |
| 20260905091247 | 54 | 214 | 0.0 | 0.0 | 0.00 | 0.00 | 0.00 | 97 | 1019.3 |
| 20260905090746 | 54 | 215 | 0.0 | 0.0 | 0.00 | 0.00 | 0.00 | 97 | 1018.9 |
| 20260905090242 | 54 | 214 | 0.0 | 0.0 | 0.00 | 0.00 | 0.00 | 97 | 1018.9 |
| 20260905085741 | 54 | 214 | 0.0 | 0.0 | 0.00 | 0.00 | 0.00 | 97 | 1018.9 |
| 20260905085241 | 54 | 214 | 0.0 | 0.0 | 0.00 | 0.00 | 0.00 | 97 | 1018.9 |
| 20260905084736 | 55 | 215 | 0.0 | 0.0 | 0.00 | 0.00 | 0.00 | 97 | 1018.9 |
| 20260905084235 | 55 | 212 | 0.0 | 0.0 | 0.00 | 0.00 | 0.00 | 97 | 1019.3 |
| 20260905083730 | 55 | 215 | 0.0 | 0.0 | 0.00 | 0.00 | 0.00 | 96 | 1018.9 |
| 20260905083226 | 55 | 215 | 0.0 | 0.0 | 0.00 | 0.00 | 0.00 | 96 | 1018.9 |
| 20260905082722 | 55 | 215 | 0.0 | 0.0 | 0.00 | 0.00 | 0.00 | 96 | 1018.9 |
| 20260905082217 | 55 | 214 | 0.0 | 0.0 | 0.00 | 0.00 | 0.00 | 96 | 1018.9 |
| 20260905081712 | 55 | 215 | 0.0 | 0.0 | 0.00 | 0.00 | 0.00 | 96 | 1018.9 |
| 20260905081207 | 55 | 212 | 0.0 | 0.0 | 0.00 | 0.00 | 0.00 | 96 | 1018.6 |
| 20260905080706 | 55 | 210 | 0.0 | 0.0 | 0.00 | 0.00 | 0.00 | 95 | 1018.9 |
| 20260905080201 | 56 | 210 | 0.0 | 0.0 | 0.00 | 0.00 | 0.00 | 95 | 1018.9 |
| 20260905075700 | 56 | 209 | 0.0 | 0.0 | 0.00 | 0.00 | 0.00 | 95 | 1018.6 |
| 20260905075200 | 56 | 209 | 0.0 | 0.0 | 0.00 | 0.00 | 0.00 | 95 | 1018.6 |
| 20260905074658 | 56 | 195 | 0.0 | 0.0 | 0.00 | 0.00 | 0.00 | 95 | 1018.6 |
| 20260905074154 | 57 | 179 | 1.0 | 1.0 | 0.00 | 0.00 | 0.00 | 95 | 1018.6 |
| 20260905073650 | 56 | 191 | 0.0 | 0.0 | 0.00 | 0.00 | 0.00 | 95 | 1018.6 |
| 20260905073146 | 56 | 194 | 0.0 | 0.0 | 0.00 | 0.00 | 0.00 | 95 | 1018.6 |
| 20260905072645 | 56 | 208 | 0.0 | 0.0 | 0.00 | 0.00 | 0.00 | 95 | 1018.6 |
| 20260905072140 | 56 | 206 | 0.0 | 0.0 | 0.00 | 0.00 | 0.00 | 95 | 1018.6 |
| 20260905071637 | 56 | 206 | 0.0 | 0.0 | 0.00 | 0.00 | 0.00 | 95 | 1018.6 |
| 20260905071132 | 56 | 205 | 0.0 | 0.0 | 0.00 | 0.00 | 0.00 | 95 | 1018.6 |
| 20260905070627 | 56 | 209 | 0.0 | 0.0 | 0.00 | 0.00 | 0.00 | 95 | 1018.6 |
| 20260905070123 | 56 | 210 | 0.0 | 0.0 | 0.00 | 0.00 | 0.00 | 96 | 1018.6 |
| 20260905065621 | 56 | 209 | 0.0 | 0.0 | 0.00 | 0.28 | 0.28 | 96 | 1018.6 |
| 20260905065116 | 56 | 206 | 0.0 | 0.0 | 0.00 | 0.28 | 0.28 | 96 | 1018.6 |
| 20260905064611 | 56 | 209 | 0.0 | 0.0 | 0.00 | 0.28 | 0.28 | 96 | 1018.6 |
| 20260905064107 | 56 | 210 | 0.0 | 0.0 | 0.00 | 0.28 | 0.28 | 96 | 1018.6 |
| 20260905063605 | 56 | 214 | 0.0 | 0.0 | 0.00 | 0.28 | 0.28 | 96 | 1018.6 |
| 20260905063101 | 56 | 214 | 0.0 | 0.0 | 0.00 | 0.28 | 0.28 | 96 | 1018.6 |
| 20260905062556 | 56 | 213 | 0.0 | 0.0 | 0.00 | 0.28 | 0.28 | 96 | 1018.6 |
| 20260905062051 | 56 | 211 | 0.0 | 0.0 | 0.00 | 0.28 | 0.28 | 96 | 1018.2 |
| 20260905061546 | 56 | 209 | 0.0 | 0.0 | 0.00 | 0.28 | 0.28 | 96 | 1018.6 |
| 20260905061045 | 56 | 197 | 0.0 | 1.0 | 0.00 | 0.28 | 0.28 | 96 | 1018.6 |
| 20260905060541 | 56 | 209 | 0.0 | 0.0 | 0.00 | 0.28 | 0.28 | 96 | 1018.6 |
| 20260905060037 | 56 | 213 | 0.0 | 0.0 | 0.00 | 0.28 | 0.28 | 97 | 1018.6 |
| 20260905055535 | 56 | 204 | 0.0 | 0.0 | 0.00 | 0.28 | 0.28 | 97 | 1018.6 |
| 20260905055030 | 56 | 210 | 0.0 | 0.0 | 0.00 | 0.28 | 0.28 | 97 | 1018.6 |
| 20260905054525 | 56 | 215 | 0.0 | 0.0 | 0.00 | 0.28 | 0.28 | 96 | 1018.2 |
| 20260905054016 | 56 | 215 | 0.0 | 0.0 | 0.00 | 0.28 | 0.28 | 96 | 1018.2 |
| 20260905053515 | 57 | 215 | 0.0 | 0.0 | 0.00 | 0.28 | 0.28 | 96 | 1018.2 |
| 20260905053011 | 57 | 213 | 0.0 | 0.0 | 0.00 | 0.28 | 0.28 | 96 | 1018.2 |
| 20260905052510 | 57 | 214 | 0.0 | 0.0 | 0.00 | 0.28 | 0.28 | 96 | 1018.2 |
| 20260905052010 | 57 | 216 | 0.0 | 0.0 | 0.00 | 0.28 | 0.28 | 96 | 1017.9 |
| 20260905051506 | 57 | 214 | 0.0 | 0.0 | 0.00 | 0.28 | 0.28 | 96 | 1017.9 |
| 20260905051002 | 57 | 216 | 0.0 | 0.0 | 0.00 | 0.28 | 0.28 | 96 | 1018.2 |
| 20260905050458 | 57 | 217 | 0.0 | 0.0 | 0.00 | 0.28 | 0.28 | 95 | 1018.2 |